This is the latest recevied weather packets stored in our database for station/object N4TLC. If no packets are shown the sender has not sent any weather packets the latest 10 day(s).
| Time | Temp. | Humidity | Pressure | Rain* | Wind** | Luminosity | Snow |
|---|---|---|---|---|---|---|---|
| 1777671132 | 18.89° C | 48% | 1013.8 hPa | 0 mm | - | 381 W/m² | - |
| 1777670828 | 18.89° C | 48% | 1013.6 hPa | 0 mm | - | 265 W/m² | - |
| 1777670525 | 20° C | 46% | 1013.7 hPa | 0 mm | - | 353 W/m² | - |
| 1777670222 | 20° C | 45% | 1013.6 hPa | 0 mm | - | 524 W/m² | - |
| 1777669919 | 20.56° C | 43% | 1013.7 hPa | 0 mm | - | 475 W/m² | - |
| 1777669616 | 20.56° C | 43% | 1013.6 hPa | 0 mm | - | 439 W/m² | - |
| 1777669312 | 20° C | 43% | 1013.5 hPa | 0 mm | - | 522 W/m² | - |
| 1777669008 | 20° C | 44% | 1013.7 hPa | 0 mm | - | 566 W/m² | - |
| 1777668706 | 20° C | 43% | 1013.6 hPa | 0 mm | - | 300 W/m² | - |
| 1777668403 | 20.56° C | 41% | 1013.8 hPa | 0 mm | - | 483 W/m² | - |
| 1777668098 | 21.11° C | 41% | 1013.8 hPa | 0 mm | - | 654 W/m² | - |
| 1777667795 | 21.11° C | 42% | 1013.9 hPa | 0 mm | - | 261 W/m² | - |
| 1777667493 | 21.11° C | 40% | 1014.2 hPa | 0 mm | - | 256 W/m² | - |
| 1777667190 | 20.56° C | 43% | 1014 hPa | 0 mm | - | 734 W/m² | - |
| 1777666887 | 20.56° C | 41% | 1014.1 hPa | 0 mm | - | 637 W/m² | - |
| 1777666584 | 20° C | 41% | 1014.2 hPa | 0 mm | - | 688 W/m² | - |
| 1777666280 | 20° C | 41% | 1014.1 hPa | 0 mm | - | 762 W/m² | - |
| 1777665977 | 20.56° C | 40% | 1014.2 hPa | 0 mm | - | 734 W/m² | - |
| 1777665675 | 20.56° C | 40% | 1014.3 hPa | 0 mm | - | 751 W/m² | - |
| 1777665372 | 20.56° C | 39% | 1014.4 hPa | 0 mm | - | 296 W/m² | - |
| 1777665068 | 20° C | 42% | 1014.6 hPa | 0 mm | - | 734 W/m² | - |
| 1777664763 | 20° C | 40% | 1014.9 hPa | 0 mm | - | 470 W/m² | - |
| 1777664459 | 20° C | 41% | 1014.9 hPa | 0 mm | - | 710 W/m² | - |
| 1777664157 | 20.56° C | 38% | 1015.2 hPa | 0 mm | - | 447 W/m² | - |
| 1777663855 | 20° C | 39% | 1015.1 hPa | 0 mm | - | 797 W/m² | - |
* Rain latest hour (hover to see other rain measurements)
** Current wind speed in m/s (hover to see current wind gust speed)